• In Lithuania
  • List of Countries
  • For 7 days
  • Water Temperature
  • Satellite Maps
  • Weather Map
  • Weather Widgets
  • user-avatar
    Login

    Hourly Weather Elitnyy

    Today, 26 April, Thursday

    Time Temperature Precipitation Wind Pressure Humidity
    00:00 +12°C° 0 mm 4 mps 757 mmHg 82%
    01:00 +12°C° 0 mm 3 mps 757 mmHg 84%
    02:00 +12°C° 0 mm 3 mps 757 mmHg 85%
    03:00 +12°C° 0 mm 3 mps 756 mmHg 86%
    04:00 +11°C° 0 mm 3 mps 756 mmHg 87%
    05:00 +11°C° 0 mm 3 mps 756 mmHg 88%
    06:00 +11°C° 0 mm 3 mps 756 mmHg 88%
    07:00 +13°C° 0 mm 4 mps 756 mmHg 83%
    08:00 +15°C° 0 mm 4 mps 756 mmHg 77%
    09:00 +19°C° 0 mm 5 mps 757 mmHg 70%
    10:00 +20°C° 0 mm 5 mps 757 mmHg 65%
    11:00 +22°C° 0 mm 6 mps 756 mmHg 60%
    12:00 +23°C° 0 mm 6 mps 756 mmHg 55%
    13:00 +24°C° 0 mm 6 mps 756 mmHg 54%
    14:00 +24°C° 0 mm 7 mps 756 mmHg 52%
    15:00 +24°C° 0 mm 7 mps 756 mmHg 51%
    16:00 +23°C° 0 mm 6 mps 756 mmHg 53%
    17:00 +22°C° 0 mm 6 mps 756 mmHg 56%
    18:00 +21°C° 0 mm 5 mps 756 mmHg 58%
    19:00 +20°C° 0 mm 4 mps 756 mmHg 61%
    20:00 +18°C° 0 mm 4 mps 756 mmHg 64%
    21:00 +16°C° 0 mm 3 mps 756 mmHg 67%
    22:00 +16°C° 0 mm 3 mps 756 mmHg 68%
    23:00 +14°C° 0 mm 3 mps 757 mmHg 68%

    Tomorrow, 27 April, Friday

    Time Temperature Precipitation Wind Pressure Humidity
    00:00 +15°C° 0 mm 2 mps 757 mmHg 69%
    01:00 +15°C° 0 mm 2 mps 757 mmHg 69%
    02:00 +14°C° 0 mm 2 mps 756 mmHg 70%
    03:00 +14°C° 0 mm 1 mps 756 mmHg 70%
    04:00 +14°C° 0 mm 1 mps 756 mmHg 71%
    05:00 +14°C° 0 mm 1 mps 756 mmHg 71%
    06:00 +14°C° 0 mm 1 mps 756 mmHg 72%
    07:00 +16°C° 0 mm 1 mps 756 mmHg 66%
    08:00 +18°C° 0 mm 2 mps 756 mmHg 60%
    09:00 +20°C° 0 mm 3 mps 756 mmHg 53%
    10:00 +22°C° 0 mm 3 mps 756 mmHg 49%
    11:00 +24°C° 0 mm 3 mps 756 mmHg 45%
    12:00 +26°C° 0 mm 3 mps 755 mmHg 42%
    13:00 +27°C° 0 mm 3 mps 755 mmHg 40%
    14:00 +27°C° 0 mm 3 mps 755 mmHg 39%
    15:00 +28°C° 0 mm 3 mps 754 mmHg 38%
    16:00 +27°C° 0 mm 3 mps 754 mmHg 42%
    17:00 +26°C° 0 mm 3 mps 754 mmHg 45%
    18:00 +26°C° 0 mm 3 mps 753 mmHg 48%
    19:00 +24°C° 0.2 mm 3 mps 754 mmHg 51%
    20:00 +21°C° 0.2 mm 3 mps 754 mmHg 54%
    21:00 +19°C° 0.2 mm 3 mps 754 mmHg 56%
    22:00 +18°C° 0 mm 3 mps 754 mmHg 60%
    23:00 +17°C° 0 mm 4 mps 755 mmHg 64%

    Day after tomorrow, 28 April, Saturday

    Time Temperature Precipitation Wind Pressure Humidity
    00:00 +15°C° 0 mm 4 mps 755 mmHg 67%
    01:00 +14°C° 0 mm 5 mps 755 mmHg 73%
    02:00 +13°C° 0 mm 5 mps 756 mmHg 79%
    03:00 +12°C° 0 mm 5 mps 756 mmHg 84%
    04:00 +12°C° 0 mm 5 mps 757 mmHg 83%
    05:00 +10°C° 0 mm 5 mps 757 mmHg 82%
    06:00 +9°C° 0 mm 5 mps 758 mmHg 81%
    07:00 +12°C° 0 mm 5 mps 759 mmHg 74%
    08:00 +13°C° 0 mm 5 mps 759 mmHg 66%
    09:00 +14°C° 0 mm 4 mps 760 mmHg 59%
    10:00 +17°C° 0 mm 4 mps 760 mmHg 54%
    11:00 +18°C° 0 mm 4 mps 761 mmHg 49%
    12:00 +20°C° 0 mm 3 mps 761 mmHg 45%
    13:00 +20°C° 0 mm 3 mps 761 mmHg 43%
    14:00 +21°C° 0 mm 3 mps 761 mmHg 41%
    15:00 +22°C° 0 mm 3 mps 761 mmHg 39%
    16:00 +21°C° 0 mm 3 mps 761 mmHg 41%
    17:00 +21°C° 0 mm 3 mps 761 mmHg 44%
    18:00 +20°C° 0 mm 2 mps 761 mmHg 47%
    19:00 +19°C° 0 mm 2 mps 762 mmHg 50%
    20:00 +17°C° 0 mm 2 mps 762 mmHg 52%
    21:00 +16°C° 0 mm 2 mps 763 mmHg 55%
    22:00 +15°C° 0 mm 2 mps 763 mmHg 56%
    23:00 +14°C° 0 mm 2 mps 763 mmHg 57%

    29 April, Sunday

    Time Temperature Precipitation Wind Pressure Humidity
    00:00 +14°C° 0 mm 2 mps 763 mmHg 58%
    01:00 +13°C° 0 mm 2 mps 764 mmHg 59%
    02:00 +13°C° 0 mm 2 mps 764 mmHg 60%
    03:00 +13°C° 0 mm 2 mps 764 mmHg 60%
    04:00 +12°C° 0 mm 2 mps 764 mmHg 62%
    05:00 +12°C° 0 mm 2 mps 764 mmHg 64%
    06:00 +12°C° 0 mm 2 mps 764 mmHg 66%
    07:00 +13°C° 0 mm 3 mps 765 mmHg 61%
    08:00 +16°C° 0 mm 3 mps 765 mmHg 55%
    09:00 +18°C° 0 mm 3 mps 765 mmHg 50%
    10:00 +19°C° 0 mm 3 mps 765 mmHg 46%
    11:00 +20°C° 0 mm 3 mps 765 mmHg 42%
    12:00 +21°C° 0 mm 3 mps 764 mmHg 39%
    13:00 +22°C° 0 mm 3 mps 764 mmHg 38%
    14:00 +22°C° 0 mm 3 mps 764 mmHg 37%
    15:00 +24°C° 0 mm 3 mps 763 mmHg 36%
    16:00 +22°C° 0 mm 3 mps 763 mmHg 39%
    17:00 +22°C° 0 mm 3 mps 763 mmHg 42%
    18:00 +21°C° 0 mm 2 mps 763 mmHg 45%
    19:00 +20°C° 0 mm 2 mps 763 mmHg 48%
    20:00 +18°C° 0 mm 3 mps 763 mmHg 50%
    21:00 +16°C° 0 mm 3 mps 763 mmHg 53%
    22:00 +16°C° 0 mm 3 mps 763 mmHg 54%
    23:00 +15°C° 0 mm 2 mps 763 mmHg 55%

    30 April, Monday

    Time Temperature Precipitation Wind Pressure Humidity
    00:00 +14°C° 0 mm 2 mps 763 mmHg 56%
    01:00 +14°C° 0 mm 2 mps 763 mmHg 56%
    02:00 +13°C° 0 mm 3 mps 763 mmHg 56%
    03:00 +12°C° 0 mm 3 mps 763 mmHg 57%
    04:00 +12°C° 0 mm 3 mps 763 mmHg 59%
    05:00 +12°C° 0 mm 3 mps 763 mmHg 60%
    06:00 +12°C° 0 mm 3 mps 763 mmHg 62%
    07:00 +14°C° 0 mm 3 mps 763 mmHg 57%
    08:00 +17°C° 0 mm 3 mps 763 mmHg 53%
    09:00 +19°C° 0 mm 4 mps 763 mmHg 48%
    10:00 +21°C° 0 mm 4 mps 763 mmHg 44%
    11:00 +22°C° 0 mm 5 mps 762 mmHg 41%
    12:00 +23°C° 0 mm 5 mps 762 mmHg 38%
    13:00 +25°C° 0 mm 5 mps 762 mmHg 37%
    14:00 +25°C° 0 mm 5 mps 761 mmHg 37%
    15:00 +26°C° 0 mm 5 mps 761 mmHg 36%
    16:00 +25°C° 0 mm 4 mps 761 mmHg 40%
    17:00 +23°C° 0 mm 4 mps 761 mmHg 44%
    18:00 +24°C° 0 mm 3 mps 760 mmHg 48%
    19:00 +21°C° 0 mm 3 mps 761 mmHg 50%
    20:00 +20°C° 0 mm 3 mps 761 mmHg 53%
    21:00 +18°C° 0 mm 3 mps 761 mmHg 56%
    22:00 +17°C° 0 mm 3 mps 761 mmHg 57%
    23:00 +16°C° 0 mm 3 mps 761 mmHg 58%

    1 May, Tuesday

    Time Temperature Precipitation Wind Pressure Humidity
    00:00 +16°C° 0 mm 3 mps 761 mmHg 59%
    01:00 +14°C° 0 mm 3 mps 761 mmHg 60%
    02:00 +14°C° 0 mm 3 mps 761 mmHg 60%
    03:00 +13°C° 0 mm 3 mps 760 mmHg 60%
    04:00 +13°C° 0 mm 3 mps 761 mmHg 60%
    05:00 +12°C° 0 mm 4 mps 761 mmHg 60%
    06:00 +12°C° 0 mm 4 mps 761 mmHg 60%
    07:00 +14°C° 0 mm 5 mps 761 mmHg 54%
    08:00 +16°C° 0 mm 5 mps 761 mmHg 48%
    09:00 +19°C° 0 mm 6 mps 761 mmHg 41%
    10:00 +20°C° 0 mm 6 mps 761 mmHg 39%
    11:00 +22°C° 0 mm 7 mps 761 mmHg 37%
    12:00 +23°C° 0 mm 7 mps 761 mmHg 35%
    13:00 +24°C° 0 mm 7 mps 760 mmHg 34%
    14:00 +24°C° 0 mm 7 mps 760 mmHg 34%
    15:00 +26°C° 0 mm 7 mps 760 mmHg 34%
    16:00 +24°C° 0 mm 6 mps 760 mmHg 39%
    17:00 +25°C° 0 mm 5 mps 760 mmHg 43%
    18:00 +23°C° 0 mm 4 mps 760 mmHg 48%
    19:00 +22°C° 0 mm 4 mps 760 mmHg 50%
    20:00 +20°C° 0 mm 4 mps 760 mmHg 52%
    21:00 +19°C° 0 mm 4 mps 760 mmHg 54%
    22:00 +18°C° 0 mm 4 mps 760 mmHg 54%
    23:00 +17°C° 0 mm 5 mps 760 mmHg 54%
    Show more